Year,Month,Day,Hour,Minute,Value (Times are PST for temperature in C)
2014,09,18,09,07,15.50
2014,09,18,09,08,15.60
2014,09,18,09,09,15.60
2014,09,18,09,10,15.70
2014,09,18,09,11,15.70
2014,09,18,09,12,15.70
2014,09,18,09,13,15.70
2014,09,18,09,14,15.70
2014,09,18,09,15,15.70
2014,09,18,09,16,15.70
2014,09,18,09,17,15.80
2014,09,18,09,18,15.80
2014,09,18,09,19,15.80
2014,09,18,09,20,15.80
2014,09,18,09,21,15.80
2014,09,18,09,22,15.80
2014,09,18,09,23,15.90
2014,09,18,09,24,15.90
2014,09,18,09,25,16.00
2014,09,18,09,26,16.10
2014,09,18,09,27,16.10
2014,09,18,09,28,16.10
2014,09,18,09,29,16.20
2014,09,18,09,30,16.20
2014,09,18,09,31,16.30
2014,09,18,09,32,16.30
2014,09,18,09,33,16.40
2014,09,18,09,34,16.40
2014,09,18,09,35,16.40
2014,09,18,09,36,16.40
2014,09,18,09,37,16.40
2014,09,18,09,38,16.50
2014,09,18,09,39,16.60
2014,09,18,09,40,16.60
2014,09,18,09,41,16.60
2014,09,18,09,42,16.60
2014,09,18,09,43,16.70
2014,09,18,09,44,16.70
2014,09,18,09,45,16.70
2014,09,18,09,46,16.70
2014,09,18,09,47,16.70
2014,09,18,09,48,16.70
2014,09,18,09,49,16.70
2014,09,18,09,50,16.70
2014,09,18,09,51,16.70
2014,09,18,09,52,16.70
2014,09,18,09,53,16.70
2014,09,18,09,54,16.70
2014,09,18,09,55,16.70
2014,09,18,09,56,16.70
2014,09,18,09,57,16.70
2014,09,18,09,58,16.80
2014,09,18,09,59,16.80
2014,09,18,10,00,16.80
2014,09,18,10,01,16.80
2014,09,18,10,02,16.80
2014,09,18,10,03,16.80
2014,09,18,10,04,16.80
2014,09,18,10,05,16.90
2014,09,18,10,06,16.90
2014,09,18,10,07,16.80
2014,09,18,10,08,16.80
2014,09,18,10,09,16.80
2014,09,18,10,10,16.80
2014,09,18,10,11,16.80
2014,09,18,10,12,16.80
2014,09,18,10,13,16.80
2014,09,18,10,14,16.80
2014,09,18,10,15,16.80
2014,09,18,10,16,16.70
2014,09,18,10,17,16.80
2014,09,18,10,18,16.80
2014,09,18,10,19,16.70
2014,09,18,10,20,16.70
2014,09,18,10,21,16.70
2014,09,18,10,22,16.80
2014,09,18,10,23,16.80
2014,09,18,10,24,16.80
2014,09,18,10,25,16.80
2014,09,18,10,26,16.80
2014,09,18,10,27,16.90
2014,09,18,10,28,16.90
2014,09,18,10,29,17.00
2014,09,18,10,30,17.00
2014,09,18,10,31,17.00
2014,09,18,10,32,17.00
2014,09,18,10,33,17.10
2014,09,18,10,34,17.10
2014,09,18,10,35,17.20
2014,09,18,10,36,17.20
2014,09,18,10,37,17.30
2014,09,18,10,38,17.30
2014,09,18,10,39,17.30
2014,09,18,10,40,17.30
2014,09,18,10,41,17.30
2014,09,18,10,42,17.40
2014,09,18,10,43,17.40
2014,09,18,10,44,17.50
2014,09,18,10,45,17.50
2014,09,18,10,46,17.50
2014,09,18,10,47,17.60
2014,09,18,10,48,17.60
2014,09,18,10,49,17.60
2014,09,18,10,50,17.60
2014,09,18,10,51,17.60
2014,09,18,10,52,17.60
2014,09,18,10,53,17.60
2014,09,18,10,54,17.60
2014,09,18,10,55,17.60
2014,09,18,10,56,17.60
2014,09,18,10,57,17.50
2014,09,18,10,58,17.50
2014,09,18,10,59,17.60
2014,09,18,11,00,17.60
2014,09,18,11,01,17.70
2014,09,18,11,02,17.70
2014,09,18,11,03,17.80
2014,09,18,11,04,17.90
2014,09,18,11,05,17.90
2014,09,18,11,06,17.90
2014,09,18,11,07,17.90
2014,09,18,11,08,17.90
2014,09,18,11,09,17.90
2014,09,18,11,10,17.90
2014,09,18,11,11,18.00
2014,09,18,11,12,18.10
2014,09,18,11,13,18.10
2014,09,18,11,14,18.00
2014,09,18,11,15,18.00
2014,09,18,11,16,18.10
2014,09,18,11,17,18.10
2014,09,18,11,18,18.20
2014,09,18,11,19,18.20
2014,09,18,11,20,18.20
2014,09,18,11,21,18.20
2014,09,18,11,22,18.10
2014,09,18,11,23,18.20
2014,09,18,11,24,18.20
2014,09,18,11,25,18.20
2014,09,18,11,26,18.30
2014,09,18,11,27,18.40
2014,09,18,11,28,18.50
2014,09,18,11,29,18.60
2014,09,18,11,30,18.70
2014,09,18,11,31,18.70
2014,09,18,11,32,18.80
2014,09,18,11,33,18.80
2014,09,18,11,34,18.90
2014,09,18,11,35,18.90
2014,09,18,11,36,18.90
2014,09,18,11,37,18.90
2014,09,18,11,38,18.90
2014,09,18,11,39,18.80
2014,09,18,11,40,18.80
2014,09,18,11,41,18.80
2014,09,18,11,42,18.80
2014,09,18,11,43,18.80
2014,09,18,11,44,18.80
2014,09,18,11,45,18.70
2014,09,18,11,46,18.70
2014,09,18,11,47,18.70
2014,09,18,11,48,18.70
2014,09,18,11,49,18.70
2014,09,18,11,50,18.70
2014,09,18,11,51,18.70
2014,09,18,11,52,18.70
2014,09,18,11,53,18.70
2014,09,18,11,54,18.70
2014,09,18,11,55,18.70
2014,09,18,11,56,18.80
2014,09,18,11,57,18.70
2014,09,18,11,58,18.70
2014,09,18,11,59,18.70
2014,09,18,12,00,18.70
2014,09,18,12,01,18.70
2014,09,18,12,02,18.70
2014,09,18,12,03,18.70
2014,09,18,12,04,18.70
2014,09,18,12,05,18.70
2014,09,18,12,06,18.70
2014,09,18,12,07,18.70
2014,09,18,12,08,18.80
2014,09,18,12,09,18.80
2014,09,18,12,10,18.80
2014,09,18,12,11,18.90
2014,09,18,12,12,18.90
2014,09,18,12,13,18.90
2014,09,18,12,14,18.90
2014,09,18,12,15,18.90
2014,09,18,12,16,18.90
2014,09,18,12,17,18.90
2014,09,18,12,18,18.90
2014,09,18,12,19,18.90
2014,09,18,12,20,18.90
2014,09,18,12,21,18.80
2014,09,18,12,22,18.80
2014,09,18,12,23,18.80
2014,09,18,12,24,18.70
2014,09,18,12,25,18.70
2014,09,18,12,26,18.60
2014,09,18,12,27,18.60
2014,09,18,12,28,18.60
2014,09,18,12,29,18.60
2014,09,18,12,30,18.60
2014,09,18,12,31,18.60
2014,09,18,12,32,18.60
2014,09,18,12,33,18.50
2014,09,18,12,34,18.50
2014,09,18,12,35,18.50
2014,09,18,12,36,18.40
2014,09,18,12,37,18.40
2014,09,18,12,38,18.40
2014,09,18,12,39,18.40
2014,09,18,12,40,18.40
2014,09,18,12,41,18.40
2014,09,18,12,42,18.40
2014,09,18,12,43,18.40
2014,09,18,12,44,18.40
2014,09,18,12,45,18.50
2014,09,18,12,46,18.50
2014,09,18,12,47,18.50
2014,09,18,12,48,18.50
2014,09,18,12,49,18.50
2014,09,18,12,50,18.50
2014,09,18,12,51,18.50
2014,09,18,12,52,18.50
2014,09,18,12,53,18.50
2014,09,18,12,54,18.50
2014,09,18,12,55,18.40
2014,09,18,12,56,18.40
2014,09,18,12,57,18.40
2014,09,18,12,58,18.40
2014,09,18,12,59,18.40
2014,09,18,13,00,18.40
2014,09,18,13,01,18.40
2014,09,18,13,02,18.30
2014,09,18,13,03,18.30
2014,09,18,13,04,18.30
2014,09,18,13,05,18.30
2014,09,18,13,06,18.30
2014,09,18,13,07,18.30
2014,09,18,13,08,18.30
2014,09,18,13,09,18.20
2014,09,18,13,10,18.20
2014,09,18,13,11,18.20
2014,09,18,13,12,18.20
2014,09,18,13,13,18.20
2014,09,18,13,14,18.20
2014,09,18,13,15,18.20
2014,09,18,13,16,18.20
2014,09,18,13,17,18.20
2014,09,18,13,18,18.20
2014,09,18,13,19,18.20
2014,09,18,13,20,18.20
2014,09,18,13,21,18.20
2014,09,18,13,22,18.20
2014,09,18,13,23,18.20
2014,09,18,13,24,18.20
2014,09,18,13,25,18.20
2014,09,18,13,26,18.20
2014,09,18,13,27,18.20
2014,09,18,13,28,18.20
2014,09,18,13,29,18.20
2014,09,18,13,30,18.20
2014,09,18,13,31,18.20
2014,09,18,13,32,18.20
2014,09,18,13,33,18.20
2014,09,18,13,34,18.20
2014,09,18,13,35,18.20
2014,09,18,13,36,18.20
2014,09,18,13,37,18.20
2014,09,18,13,38,18.20
2014,09,18,13,39,18.20
2014,09,18,13,40,18.10
2014,09,18,13,41,18.10
2014,09,18,13,42,18.10
2014,09,18,13,43,18.10
2014,09,18,13,44,18.10
2014,09,18,13,45,18.10
2014,09,18,13,46,18.10
2014,09,18,13,47,18.10
2014,09,18,13,48,18.10
2014,09,18,13,49,18.10
2014,09,18,13,50,18.10
2014,09,18,13,51,18.10
2014,09,18,13,52,18.10
2014,09,18,13,53,18.00
2014,09,18,13,54,18.00
2014,09,18,13,55,18.10
2014,09,18,13,56,18.00
2014,09,18,13,57,17.90
2014,09,18,13,58,17.90
2014,09,18,13,59,18.00
2014,09,18,14,00,18.00
2014,09,18,14,01,17.90
2014,09,18,14,02,17.90
2014,09,18,14,03,17.90
2014,09,18,14,04,18.00
2014,09,18,14,05,18.10
2014,09,18,14,06,18.10
2014,09,18,14,07,18.10
2014,09,18,14,08,18.20
2014,09,18,14,09,18.20
2014,09,18,14,10,18.10
2014,09,18,14,11,18.10
2014,09,18,14,12,18.10
2014,09,18,14,13,18.10
2014,09,18,14,14,18.10
2014,09,18,14,15,18.20
2014,09,18,14,16,18.20
2014,09,18,14,17,18.20
2014,09,18,14,18,18.20
2014,09,18,14,19,18.20
2014,09,18,14,20,18.20
2014,09,18,14,21,18.20
2014,09,18,14,22,18.20
2014,09,18,14,23,18.20
2014,09,18,14,24,18.20
2014,09,18,14,25,18.20
2014,09,18,14,26,18.20
2014,09,18,14,27,18.20
2014,09,18,14,28,18.20
2014,09,18,14,29,18.20
2014,09,18,14,30,18.10
2014,09,18,14,31,18.10
2014,09,18,14,32,18.10
2014,09,18,14,33,18.10
2014,09,18,14,34,18.10
2014,09,18,14,35,18.10
2014,09,18,14,36,18.10
2014,09,18,14,37,18.10
2014,09,18,14,38,18.10
2014,09,18,14,39,18.10
2014,09,18,14,40,18.10
2014,09,18,14,41,18.10
2014,09,18,14,42,18.10
2014,09,18,14,43,18.10
2014,09,18,14,44,18.10
2014,09,18,14,45,18.10
2014,09,18,14,46,18.10
2014,09,18,14,47,18.10
2014,09,18,14,48,18.10
2014,09,18,14,49,18.10
2014,09,18,14,50,18.10
2014,09,18,14,51,18.10
2014,09,18,14,52,18.10
2014,09,18,14,53,18.10
2014,09,18,14,54,18.10
2014,09,18,14,55,18.10
2014,09,18,14,56,18.10
2014,09,18,14,57,18.10
2014,09,18,14,58,18.10
2014,09,18,14,59,18.10
2014,09,18,15,00,18.10
2014,09,18,15,01,18.10
2014,09,18,15,02,18.10
2014,09,18,15,03,18.10
2014,09,18,15,04,18.10
2014,09,18,15,05,18.20
2014,09,18,15,06,18.10
2014,09,18,15,07,18.10
2014,09,18,15,08,18.10
2014,09,18,15,09,18.10
2014,09,18,15,10,18.10
2014,09,18,15,11,18.10
2014,09,18,15,12,18.10
2014,09,18,15,13,18.10
2014,09,18,15,14,18.10
2014,09,18,15,15,18.10
2014,09,18,15,16,18.10
2014,09,18,15,17,18.10
2014,09,18,15,18,18.10
2014,09,18,15,19,18.10
2014,09,18,15,20,18.10
2014,09,18,15,21,18.10
2014,09,18,15,22,18.10
2014,09,18,15,23,18.10
2014,09,18,15,24,18.10
2014,09,18,15,25,18.10
2014,09,18,15,26,18.10
2014,09,18,15,27,18.10
2014,09,18,15,28,18.10
2014,09,18,15,29,18.10
2014,09,18,15,30,18.10
2014,09,18,15,31,18.10
2014,09,18,15,32,18.10
2014,09,18,15,33,18.10
2014,09,18,15,34,18.10
2014,09,18,15,35,18.10
2014,09,18,15,36,18.10
2014,09,18,15,37,18.10
2014,09,18,15,38,18.10
2014,09,18,15,39,18.10
2014,09,18,15,40,18.10
2014,09,18,15,41,18.10
2014,09,18,15,42,18.10
2014,09,18,15,43,18.10
2014,09,18,15,44,18.10
2014,09,18,16,00,18.20
2014,09,18,16,01,18.20
2014,09,18,16,02,18.20
2014,09,18,16,03,18.20
2014,09,18,16,04,18.30
2014,09,18,16,05,18.30
2014,09,18,16,06,18.30
2014,09,18,16,07,18.30
2014,09,18,16,08,18.30
2014,09,18,16,09,18.30
2014,09,18,16,10,18.30
2014,09,18,16,11,18.30
2014,09,18,16,12,18.40
2014,09,18,16,13,18.40
2014,09,18,16,14,18.40
2014,09,18,16,15,18.40
2014,09,18,16,16,18.50
2014,09,18,16,17,18.50
2014,09,18,16,18,18.50
2014,09,18,16,19,18.50
2014,09,18,16,20,18.50
2014,09,18,16,21,18.60
2014,09,18,16,22,18.60
2014,09,18,16,23,18.60
2014,09,18,16,24,18.60
2014,09,18,16,25,18.50
2014,09,18,16,26,18.50
2014,09,18,16,27,18.60
2014,09,18,16,28,18.60
2014,09,18,16,29,18.60
2014,09,18,16,30,18.60
2014,09,18,16,31,18.60
2014,09,18,16,32,18.60
2014,09,18,16,33,18.60
2014,09,18,16,34,18.60
2014,09,18,16,35,18.60
2014,09,18,16,36,18.60
2014,09,18,16,37,18.60
2014,09,18,16,38,18.70
2014,09,18,16,39,18.70
2014,09,18,16,40,18.70
2014,09,18,16,41,18.70
2014,09,18,16,42,18.60
2014,09,18,16,43,18.60
2014,09,18,16,44,18.60
2014,09,18,16,45,18.60
2014,09,18,16,46,18.60
2014,09,18,16,47,18.60
2014,09,18,16,48,18.60
2014,09,18,16,49,18.60
2014,09,18,16,50,18.50
2014,09,18,16,51,18.50
2014,09,18,16,52,18.50
2014,09,18,16,53,18.50
2014,09,18,16,54,18.50
2014,09,18,16,55,18.50
2014,09,18,16,56,18.50
2014,09,18,16,57,18.50
2014,09,18,16,58,18.50
2014,09,18,16,59,18.50
2014,09,18,17,00,18.50
2014,09,18,17,01,18.50
